Погода в Млада Вожице

Чехия     49°31′54″N   14°48′31″E
темп.,
°C
ветер,
м/с
пор.,
м/с
влажн.,
%
обл.,
%
осадки,
мм/ч
давл.,
гПа
погр.,
м
27 октября, ср
ср2723:00+6зюз2290100 0.0 102726
02:00+5юз2392100 0.0 102736
05:00+5юз2292100 0.0 102720
08:00+5ююз2293100 0.0 102820
11:00+9юз347599 0.0 1028361
14:00+13юз345997 0.0 1026740
17:00+11юз1166100 0.0 102510
20:00+8юв227683 0.0 102610
28 октября, чт
чт2823:00+6юв228197 0.0 102710
02:00+6вюв228674 0.0 102611
05:00+5юв228829 0.0 102516
08:00+3вюв22915 0.0 102516
11:00+10юв610685 0.0 1024504
14:00+12юв79545 0.0 1022676
17:00+10ююв612545 0.0 1021437
20:00+7юв613603 0.0 1021289
29 октября, пт
пт2923:00+5ююв411665 0.0 1021259
02:00+4юв36755 0.0 1020125
05:00+2юв22805 0.0 101939
08:00+1вюв228344 0.0 101926
11:00+8юв695614 0.0 1017427
14:00+12ююв7114513 0.0 1014653
17:00+10юв7145611 0.0 1014448
20:00+7ююв61367100 0.0 1015284
30 октября, сб
сб3023:00+4ююв3381100 0.0 101745
02:00+3юв2285100 0.0 101714
05:00+3юв228759 0.0 101812
08:00+3ююв22875 0.0 101914
11:00+9ююв236423 0.0 1019257
14:00+12вюв235422 0.0 1018545
17:00+9юв366752 0.0 1017133
20:00+5вюв11835 0.0 101811
31 октября, вс
вс3123:00+5вюв3386100 0.0 101642
02:00+5вюв2389100 0.0 101447
04:00+5ююв239199 0.0 101261
07:00+5юв3591100 0.0 1011110
10:00+9ююв4671100 0.0 1009304
13:00+13ююв4561100 0.0 1008440
16:00+11ююв3574100 0.0 1008108
19:00+10ююв2474100 0.0 100788